Time,TemperatureF,DewpointF,PressureIn,WindDirection,WindDirectionDegrees,WindSpeedMPH,WindSpeedGustMPH,Humidity,HourlyPrecipIn,Conditions,Clouds,dailyrainin,SoftwareType,DateUTC
2013-08-04 00:00:00,79.2,77.3,18.70,ENE,71,0.0,0.0,94,0.04,,,0.00,VWS V14.00,2013-08-04 05:00:00,
2013-08-04 00:01:00,79.2,77.3,18.70,ENE,71,0.0,0.0,94,0.04,,,0.00,VWS V14.00,2013-08-04 05:01:00,
2013-08-04 00:02:00,79.2,77.3,18.70,ENE,71,0.0,0.0,94,0.04,,,0.00,VWS V14.00,2013-08-04 05:02:00,
2013-08-04 00:03:00,79.0,77.1,18.70,ENE,71,0.0,0.0,94,0.04,,,0.00,VWS V14.00,2013-08-04 05:03:00,
2013-08-04 00:04:00,79.0,77.1,18.70,ENE,71,0.0,0.0,94,0.04,,,0.00,VWS V14.00,2013-08-04 05:04:00,
2013-08-04 00:05:00,79.0,77.1,18.70,ENE,71,0.0,0.0,94,0.04,,,0.00,VWS V14.00,2013-08-04 05:05:00,
2013-08-04 00:06:00,79.0,77.1,18.70,ENE,71,0.0,0.0,94,0.04,,,0.00,VWS V14.00,2013-08-04 05:06:00,
2013-08-04 00:07:00,79.0,77.1,18.70,ENE,71,0.0,0.0,94,0.04,,,0.00,VWS V14.00,2013-08-04 05:07:00,
2013-08-04 00:08:00,79.0,77.1,18.70,ENE,73,0.0,3.6,94,0.04,,,0.00,VWS V14.00,2013-08-04 05:08:00,
2013-08-04 00:09:00,79.0,77.1,18.70,ENE,73,0.0,0.0,94,0.04,,,0.00,VWS V14.00,2013-08-04 05:09:00,
2013-08-04 00:10:00,79.0,77.1,18.70,ENE,73,2.7,2.7,94,0.00,,,0.00,VWS V14.00,2013-08-04 05:10:00,
2013-08-04 00:11:00,79.0,76.8,18.70,ENE,73,2.2,3.1,93,0.00,,,0.00,VWS V14.00,2013-08-04 05:11:00,
2013-08-04 00:12:00,79.0,76.8,18.70,ENE,72,2.7,2.7,93,0.00,,,0.00,VWS V14.00,2013-08-04 05:12:00,
2013-08-04 00:13:00,78.8,76.6,18.70,ENE,72,2.7,2.7,93,0.00,,,0.00,VWS V14.00,2013-08-04 05:13:00,
2013-08-04 00:14:00,78.8,76.6,18.70,ENE,72,0.0,2.7,93,0.00,,,0.00,VWS V14.00,2013-08-04 05:14:00,
2013-08-04 00:15:00,78.8,76.6,18.70,ENE,74,0.0,2.7,93,0.00,,,0.00,VWS V14.00,2013-08-04 05:15:00,
2013-08-04 00:16:00,78.8,76.9,18.70,ENE,74,0.0,0.0,94,0.00,,,0.00,VWS V14.00,2013-08-04 05:16:00,
2013-08-04 00:17:00,78.8,76.9,18.70,ENE,74,0.0,0.0,94,0.00,,,0.00,VWS V14.00,2013-08-04 05:17:00,
2013-08-04 00:18:00,78.8,76.9,18.70,SSE,147,3.1,3.1,94,0.00,,,0.00,VWS V14.00,2013-08-04 05:18:00,
2013-08-04 00:19:00,78.8,76.9,18.70,SSE,147,3.6,3.6,94,0.00,,,0.00,VWS V14.00,2013-08-04 05:19:00,
2013-08-04 00:20:00,78.6,76.8,18.70,SSE,147,0.0,3.6,94,0.00,,,0.00,VWS V14.00,2013-08-04 05:20:00,
2013-08-04 00:21:00,78.6,76.8,18.70,SSE,147,0.0,0.0,94,0.00,,,0.00,VWS V14.00,2013-08-04 05:21:00,
2013-08-04 00:22:00,78.6,76.8,18.70,SSE,147,0.0,0.0,94,0.00,,,0.00,VWS V14.00,2013-08-04 05:22:00,
2013-08-04 00:23:00,78.6,76.8,18.70,SSE,147,3.1,3.1,94,0.00,,,0.00,VWS V14.00,2013-08-04 05:23:00,
2013-08-04 00:24:00,78.6,76.8,18.70,SSE,147,0.0,3.1,94,0.00,,,0.00,VWS V14.00,2013-08-04 05:24:00,
2013-08-04 00:25:00,78.6,76.8,18.70,SSE,147,3.1,3.1,94,0.00,,,0.00,VWS V14.00,2013-08-04 05:25:00,
2013-08-04 00:26:00,78.8,76.9,18.70,SSE,147,2.7,3.1,94,0.00,,,0.00,VWS V14.00,2013-08-04 05:26:00,
2013-08-04 00:27:00,78.6,77.1,18.70,SE,130,2.7,2.7,95,0.00,,,0.00,VWS V14.00,2013-08-04 05:27:00,
2013-08-04 00:28:00,78.6,77.1,18.70,ESE,106,3.6,4.9,95,0.00,,,0.00,VWS V14.00,2013-08-04 05:28:00,
2013-08-04 00:29:00,78.6,77.1,18.70,ESE,109,0.0,3.6,95,0.00,,,0.00,VWS V14.00,2013-08-04 05:29:00,
2013-08-04 00:30:00,78.6,77.1,18.70,East,88,4.0,4.9,95,0.00,,,0.00,VWS V14.00,2013-08-04 05:30:00,
2013-08-04 00:31:00,78.6,77.1,18.70,East,97,2.2,4.0,95,0.00,,,0.00,VWS V14.00,2013-08-04 05:31:00,
2013-08-04 00:32:00,78.6,77.1,18.70,ESE,108,0.0,2.2,95,0.00,,,0.00,VWS V14.00,2013-08-04 05:32:00,
2013-08-04 00:33:00,78.6,77.1,18.70,ESE,118,0.0,4.0,95,0.00,,,0.00,VWS V14.00,2013-08-04 05:33:00,
2013-08-04 00:34:00,78.6,77.1,18.70,ESE,118,0.0,4.0,95,0.00,,,0.00,VWS V14.00,2013-08-04 05:34:00,
2013-08-04 00:35:00,78.6,77.1,18.70,ESE,118,0.0,0.0,95,0.00,,,0.00,VWS V14.00,2013-08-04 05:35:00,
2013-08-04 00:36:00,78.6,77.1,18.70,ESE,118,0.0,0.0,95,0.00,,,0.00,VWS V14.00,2013-08-04 05:36:00,
2013-08-04 00:37:00,78.6,77.1,18.70,East,95,2.7,3.1,95,0.00,,,0.00,VWS V14.00,2013-08-04 05:37:00,
2013-08-04 00:38:00,78.6,77.1,18.70,ESE,123,2.7,4.0,95,0.00,,,0.00,VWS V14.00,2013-08-04 05:38:00,
2013-08-04 00:39:00,78.4,76.9,18.70,SE,126,0.0,2.7,95,0.00,,,0.00,VWS V14.00,2013-08-04 05:39:00,
2013-08-04 00:40:00,78.4,76.6,18.70,SE,126,0.0,0.0,94,0.00,,,0.00,VWS V14.00,2013-08-04 05:40:00,
2013-08-04 00:41:00,78.4,76.6,18.70,East,99,0.0,3.1,94,0.00,,,0.00,VWS V14.00,2013-08-04 05:41:00,
2013-08-04 00:42:00,78.4,76.6,18.70,SE,138,2.7,4.9,94,0.00,,,0.00,VWS V14.00,2013-08-04 05:42:00,
2013-08-04 00:43:00,78.4,76.6,18.70,SE,138,0.0,2.7,94,0.00,,,0.00,VWS V14.00,2013-08-04 05:43:00,
2013-08-04 00:44:00,78.4,76.6,18.70,SE,135,0.0,0.0,94,0.00,,,0.00,VWS V14.00,2013-08-04 05:44:00,
2013-08-04 00:45:00,78.4,76.6,18.70,SE,135,0.0,2.2,94,0.00,,,0.00,VWS V14.00,2013-08-04 05:45:00,
2013-08-04 00:46:00,78.4,76.6,18.70,SE,135,2.2,2.7,94,0.00,,,0.00,VWS V14.00,2013-08-04 05:46:00,
2013-08-04 00:47:00,78.4,76.6,18.70,SE,135,2.2,3.1,94,0.00,,,0.00,VWS V14.00,2013-08-04 05:47:00,
2013-08-04 00:48:00,78.4,76.9,18.70,East,92,0.0,4.0,95,0.00,,,0.00,VWS V14.00,2013-08-04 05:48:00,
2013-08-04 00:49:00,78.3,76.7,18.70,SE,133,2.7,5.8,95,0.00,,,0.00,VWS V14.00,2013-08-04 05:49:00,
2013-08-04 00:50:00,78.3,76.4,18.70,SSE,147,0.0,2.7,94,0.00,,,0.00,VWS V14.00,2013-08-04 05:50:00,
2013-08-04 00:51:00,78.3,76.4,18.70,SE,146,0.0,0.0,94,0.00,,,0.00,VWS V14.00,2013-08-04 05:51:00,
2013-08-04 00:52:00,78.3,76.4,18.70,ENE,72,3.1,3.1,94,0.00,,,0.00,VWS V14.00,2013-08-04 05:52:00,
2013-08-04 00:53:00,78.3,76.4,18.70,East,85,4.9,5.8,94,0.00,,,0.00,VWS V14.00,2013-08-04 05:53:00,
2013-08-04 00:54:00,78.3,76.4,18.70,East,79,4.9,4.9,94,0.00,,,0.00,VWS V14.00,2013-08-04 05:54:00,
2013-08-04 00:55:00,78.3,76.4,18.70,ESE,106,4.9,4.9,94,0.00,,,0.00,VWS V14.00,2013-08-04 05:55:00,
2013-08-04 00:56:00,78.3,76.4,18.70,East,93,2.7,4.9,94,0.00,,,0.00,VWS V14.00,2013-08-04 05:56:00,
2013-08-04 00:57:00,78.1,76.2,18.70,ESE,104,2.2,2.7,94,0.00,,,0.00,VWS V14.00,2013-08-04 05:57:00,
2013-08-04 00:58:00,78.1,76.2,18.70,ESE,104,0.0,2.2,94,0.00,,,0.00,VWS V14.00,2013-08-04 05:58:00,
2013-08-04 00:59:00,78.1,76.2,18.70,East,97,5.4,5.4,94,0.00,,,0.00,VWS V14.00,2013-08-04 05:59:00,
2013-08-04 01:00:00,78.1,76.2,18.70,ESE,117,3.1,5.8,94,0.00,,,0.00,VWS V14.00,2013-08-04 06:00:00,
2013-08-04 01:01:00,78.1,76.2,18.70,South,178,2.7,3.1,94,0.00,,,0.00,VWS V14.00,2013-08-04 06:01:00,
2013-08-04 01:02:00,77.9,76.0,18.70,South,175,2.2,3.1,94,0.00,,,0.00,VWS V14.00,2013-08-04 06:02:00,
2013-08-04 01:03:00,77.9,76.0,18.70,South,175,0.0,2.2,94,0.00,,,0.00,VWS V14.00,2013-08-04 06:03:00,
2013-08-04 01:04:00,77.7,75.9,18.70,South,174,2.7,3.1,94,0.00,,,0.00,VWS V14.00,2013-08-04 06:04:00,
2013-08-04 01:05:00,77.7,75.9,18.70,ENE,75,3.1,4.5,94,0.00,,,0.00,VWS V14.00,2013-08-04 06:05:00,
2013-08-04 01:06:00,77.7,75.9,18.70,East,81,2.7,3.1,94,0.00,,,0.00,VWS V14.00,2013-08-04 06:06:00,
2013-08-04 01:07:00,77.5,75.7,18.70,East,87,3.1,3.6,94,0.00,,,0.00,VWS V14.00,2013-08-04 06:07:00,
2013-08-04 01:08:00,77.5,75.7,18.70,East,92,2.7,3.6,94,0.00,,,0.00,VWS V14.00,2013-08-04 06:08:00,
2013-08-04 01:09:00,77.5,75.7,18.70,East,92,3.1,3.1,94,0.00,,,0.00,VWS V14.00,2013-08-04 06:09:00,
2013-08-04 01:10:00,77.5,75.7,18.70,East,91,0.0,3.1,94,0.00,,,0.00,VWS V14.00,2013-08-04 06:10:00,
2013-08-04 01:11:00,77.5,75.7,18.70,ENE,75,4.0,4.9,94,0.00,,,0.00,VWS V14.00,2013-08-04 06:11:00,
2013-08-04 01:12:00,77.5,75.7,18.70,SE,136,0.0,4.0,94,0.00,,,0.00,VWS V14.00,2013-08-04 06:12:00,
2013-08-04 01:13:00,77.4,75.5,18.70,SE,126,0.0,0.0,94,0.00,,,0.00,VWS V14.00,2013-08-04 06:13:00,
2013-08-04 01:14:00,77.4,75.5,18.70,East,95,0.0,4.9,94,0.00,,,0.00,VWS V14.00,2013-08-04 06:14:00,
2013-08-04 01:15:00,77.4,75.5,18.70,SE,141,3.1,3.6,94,0.00,,,0.00,VWS V14.00,2013-08-04 06:15:00,
2013-08-04 01:16:00,77.4,75.5,18.70,SSE,150,3.1,3.1,94,0.00,,,0.00,VWS V14.00,2013-08-04 06:16:00,
2013-08-04 01:17:00,77.2,75.3,18.70,ENE,71,4.0,5.8,94,0.00,,,0.00,VWS V14.00,2013-08-04 06:17:00,
2013-08-04 01:18:00,77.2,75.3,18.70,East,91,3.6,5.8,94,0.00,,,0.00,VWS V14.00,2013-08-04 06:18:00,
2013-08-04 01:19:00,77.2,75.3,18.70,SE,140,4.0,5.4,94,0.00,,,0.00,VWS V14.00,2013-08-04 06:19:00,
2013-08-04 01:20:00,77.2,75.6,18.70,SE,130,2.2,4.0,95,0.00,,,0.00,VWS V14.00,2013-08-04 06:20:00,
2013-08-04 01:21:00,77.0,75.5,18.70,SE,138,0.0,2.7,95,0.00,,,0.00,VWS V14.00,2013-08-04 06:21:00,
2013-08-04 01:22:00,77.0,75.5,18.70,ESE,114,5.4,5.4,95,0.00,,,0.00,VWS V14.00,2013-08-04 06:22:00,
2013-08-04 01:23:00,77.0,75.5,18.70,ENE,71,5.4,5.4,95,0.00,,,0.00,VWS V14.00,2013-08-04 06:23:00,
2013-08-04 01:24:00,77.0,75.5,18.70,SE,141,4.5,5.4,95,0.00,,,0.00,VWS V14.00,2013-08-04 06:24:00,
2013-08-04 01:25:00,77.0,75.5,18.70,ESE,105,5.8,5.8,95,0.00,,,0.00,VWS V14.00,2013-08-04 06:25:00,
2013-08-04 01:26:00,77.0,75.5,18.70,ESE,115,3.1,5.8,95,0.00,,,0.00,VWS V14.00,2013-08-04 06:26:00,
2013-08-04 01:27:00,77.0,75.5,18.70,ESE,114,4.0,4.0,95,0.00,,,0.00,VWS V14.00,2013-08-04 06:27:00,
2013-08-04 01:28:00,77.0,75.5,18.70,SSE,157,3.1,5.8,95,0.00,,,0.00,VWS V14.00,2013-08-04 06:28:00,
2013-08-04 01:29:00,77.0,75.5,18.70,SE,146,2.7,3.6,95,0.00,,,0.00,VWS V14.00,2013-08-04 06:29:00,
2013-08-04 01:30:00,77.0,75.5,18.70,South,190,2.7,2.7,95,0.00,,,0.00,VWS V14.00,2013-08-04 06:30:00,
2013-08-04 01:31:00,76.8,75.3,18.70,SE,127,0.0,5.8,95,0.00,,,0.00,VWS V14.00,2013-08-04 06:31:00,
2013-08-04 01:32:00,76.8,75.6,18.70,SSE,167,3.1,3.1,96,0.00,,,0.00,VWS V14.00,2013-08-04 06:32:00,
2013-08-04 01:33:00,76.8,75.6,18.70,SSE,165,3.1,3.1,96,0.00,,,0.00,VWS V14.00,2013-08-04 06:33:00,
2013-08-04 01:34:00,76.8,75.6,18.70,South,181,3.6,5.4,96,0.00,,,0.00,VWS V14.00,2013-08-04 06:34:00,
2013-08-04 01:35:00,76.8,75.6,18.70,SE,143,4.9,4.9,96,0.00,,,0.00,VWS V14.00,2013-08-04 06:35:00,
2013-08-04 01:36:00,76.8,75.6,18.70,SE,133,3.6,8.1,96,0.00,,,0.00,VWS V14.00,2013-08-04 06:36:00,
2013-08-04 01:37:00,76.8,75.6,18.70,SE,135,0.0,4.0,96,0.00,,,0.00,VWS V14.00,2013-08-04 06:37:00,
2013-08-04 01:38:00,76.8,75.6,18.70,SSE,157,5.8,6.7,96,0.00,,,0.00,VWS V14.00,2013-08-04 06:38:00,
2013-08-04 01:39:00,76.8,75.6,18.70,SE,126,2.2,5.8,96,0.00,,,0.00,VWS V14.00,2013-08-04 06:39:00,
2013-08-04 01:40:00,76.6,75.4,18.70,SE,131,6.3,8.1,96,0.00,,,0.00,VWS V14.00,2013-08-04 06:40:00,
2013-08-04 01:41:00,76.6,75.4,18.70,SSE,147,4.0,6.3,96,0.00,,,0.00,VWS V14.00,2013-08-04 06:41:00,
2013-08-04 01:42:00,76.6,75.4,18.70,SW,223,3.1,5.8,96,0.00,,,0.00,VWS V14.00,2013-08-04 06:42:00,
2013-08-04 01:43:00,76.6,75.4,18.70,SSE,163,5.4,5.4,96,0.00,,,0.00,VWS V14.00,2013-08-04 06:43:00,
2013-08-04 01:44:00,76.6,75.4,18.70,East,100,0.0,5.4,96,0.00,,,0.00,VWS V14.00,2013-08-04 06:44:00,
2013-08-04 01:45:00,76.6,75.4,18.70,SSE,150,2.7,2.7,96,0.00,,,0.00,VWS V14.00,2013-08-04 06:45:00,
2013-08-04 01:46:00,76.6,75.4,18.70,SSE,150,0.0,2.7,96,0.00,,,0.00,VWS V14.00,2013-08-04 06:46:00,
2013-08-04 01:47:00,76.6,75.4,18.70,SSE,150,0.0,0.0,96,0.00,,,0.00,VWS V14.00,2013-08-04 06:47:00,
2013-08-04 01:48:00,76.6,75.4,18.70,SSE,150,0.0,0.0,96,0.00,,,0.00,VWS V14.00,2013-08-04 06:48:00,
2013-08-04 01:49:00,76.6,75.4,18.70,SSW,212,3.1,3.1,96,0.00,,,0.00,VWS V14.00,2013-08-04 06:49:00,
2013-08-04 01:50:00,76.6,75.4,18.70,SSW,212,3.1,3.1,96,0.00,,,0.00,VWS V14.00,2013-08-04 06:50:00,
2013-08-04 01:51:00,76.6,75.4,18.70,SW,217,0.0,3.1,96,0.00,,,0.00,VWS V14.00,2013-08-04 06:51:00,
2013-08-04 01:52:00,76.8,75.6,18.70,ESE,117,0.0,2.2,96,0.00,,,0.00,VWS V14.00,2013-08-04 06:52:00,
2013-08-04 01:53:00,76.8,75.6,18.70,South,179,0.0,0.0,96,0.00,,,0.00,VWS V14.00,2013-08-04 06:53:00,
2013-08-04 01:54:00,76.6,75.4,18.70,South,179,0.0,0.0,96,0.00,,,0.00,VWS V14.00,2013-08-04 06:54:00,
2013-08-04 01:55:00,76.6,75.4,18.70,South,179,0.0,0.0,96,0.00,,,0.00,VWS V14.00,2013-08-04 06:55:00,
2013-08-04 01:56:00,76.6,75.4,18.70,South,179,0.0,0.0,96,0.00,,,0.00,VWS V14.00,2013-08-04 06:56:00,
2013-08-04 01:57:00,76.6,75.4,18.70,South,185,5.4,5.4,96,0.00,,,0.00,VWS V14.00,2013-08-04 06:57:00,
2013-08-04 01:58:00,76.6,75.4,18.70,East,100,4.0,5.4,96,0.00,,,0.00,VWS V14.00,2013-08-04 06:58:00,
2013-08-04 01:59:00,76.8,75.6,18.70,SE,132,2.2,4.0,96,0.00,,,0.00,VWS V14.00,2013-08-04 06:59:00,
2013-08-04 02:00:00,76.6,75.4,18.70,SE,131,0.0,2.2,96,0.00,,,0.00,VWS V14.00,2013-08-04 07:00:00,
2013-08-04 02:01:00,76.6,75.4,18.70,SE,130,0.0,0.0,96,0.00,,,0.00,VWS V14.00,2013-08-04 07:01:00,
2013-08-04 02:02:00,76.6,75.4,18.70,ESE,113,3.1,3.6,96,0.00,,,0.00,VWS V14.00,2013-08-04 07:02:00,
2013-08-04 02:03:00,76.6,75.4,18.70,ESE,113,0.0,3.1,96,0.00,,,0.00,VWS V14.00,2013-08-04 07:03:00,
2013-08-04 02:04:00,76.6,75.4,18.70,ESE,113,2.7,2.7,96,0.00,,,0.00,VWS V14.00,2013-08-04 07:04:00,
2013-08-04 02:05:00,76.6,75.4,18.70,ESE,113,0.0,2.7,96,0.00,,,0.00,VWS V14.00,2013-08-04 07:05:00,
2013-08-04 02:06:00,76.6,75.4,18.70,ESE,113,0.0,0.0,96,0.00,,,0.00,VWS V14.00,2013-08-04 07:06:00,
2013-08-04 02:07:00,76.6,75.4,18.70,East,89,4.0,4.0,96,0.00,,,0.00,VWS V14.00,2013-08-04 07:07:00,
2013-08-04 02:08:00,76.6,75.4,18.70,ESE,120,2.2,4.0,96,0.00,,,0.00,VWS V14.00,2013-08-04 07:08:00,
2013-08-04 02:09:00,76.6,75.4,18.70,ENE,72,3.6,3.6,96,0.00,,,0.00,VWS V14.00,2013-08-04 07:09:00,
2013-08-04 02:10:00,76.6,75.4,18.70,East,96,2.7,3.6,96,0.00,,,0.00,VWS V14.00,2013-08-04 07:10:00,
2013-08-04 02:11:00,76.6,75.4,18.70,East,94,2.7,4.9,96,0.00,,,0.00,VWS V14.00,2013-08-04 07:11:00,
2013-08-04 02:12:00,76.6,75.4,18.70,ESE,111,0.0,2.7,96,0.00,,,0.00,VWS V14.00,2013-08-04 07:12:00,
2013-08-04 02:13:00,76.6,75.4,18.70,East,92,4.0,4.0,96,0.00,,,0.00,VWS V14.00,2013-08-04 07:13:00,
2013-08-04 02:14:00,76.6,75.4,18.70,ESE,117,2.2,6.3,96,0.00,,,0.00,VWS V14.00,2013-08-04 07:14:00,
2013-08-04 02:15:00,76.6,75.4,18.70,East,101,2.7,2.7,96,0.00,,,0.00,VWS V14.00,2013-08-04 07:15:00,
2013-08-04 02:16:00,76.5,75.2,18.70,ESE,122,4.0,4.0,96,0.00,,,0.00,VWS V14.00,2013-08-04 07:16:00,
2013-08-04 02:17:00,76.5,75.2,18.70,SE,133,0.0,4.0,96,0.00,,,0.00,VWS V14.00,2013-08-04 07:17:00,
2013-08-04 02:18:00,76.5,75.2,18.70,SSE,154,5.8,5.8,96,0.00,,,0.00,VWS V14.00,2013-08-04 07:18:00,
2013-08-04 02:19:00,76.5,75.2,18.70,SE,132,3.6,5.8,96,0.00,,,0.00,VWS V14.00,2013-08-04 07:19:00,
2013-08-04 02:20:00,76.5,75.2,18.70,SE,132,4.0,5.8,96,0.00,,,0.00,VWS V14.00,2013-08-04 07:20:00,
2013-08-04 02:21:00,76.5,75.2,18.70,SE,131,3.1,4.0,96,0.00,,,0.00,VWS V14.00,2013-08-04 07:21:00,
2013-08-04 02:22:00,76.5,75.2,18.70,SE,131,0.0,3.1,96,0.00,,,0.00,VWS V14.00,2013-08-04 07:22:00,
2013-08-04 02:23:00,76.5,75.2,18.70,SSE,161,3.1,3.1,96,0.00,,,0.00,VWS V14.00,2013-08-04 07:23:00,
2013-08-04 02:24:00,76.5,75.2,18.70,SSE,161,0.0,3.1,96,0.00,,,0.00,VWS V14.00,2013-08-04 07:24:00,
2013-08-04 02:25:00,76.5,75.2,18.70,SSE,161,0.0,0.0,96,0.00,,,0.00,VWS V14.00,2013-08-04 07:25:00,
2013-08-04 02:26:00,76.5,75.2,18.70,SE,142,3.1,3.1,96,0.00,,,0.00,VWS V14.00,2013-08-04 07:26:00,
2013-08-04 02:27:00,76.5,75.2,18.70,SE,142,2.2,3.1,96,0.00,,,0.00,VWS V14.00,2013-08-04 07:27:00,
2013-08-04 02:28:00,76.3,75.1,18.70,SE,142,2.2,2.7,96,0.00,,,0.00,VWS V14.00,2013-08-04 07:28:00,
2013-08-04 02:29:00,76.3,75.1,18.70,SE,137,0.0,3.6,96,0.00,,,0.00,VWS V14.00,2013-08-04 07:29:00,
2013-08-04 02:30:00,76.3,75.1,18.70,SE,124,0.0,4.0,96,0.00,,,0.00,VWS V14.00,2013-08-04 07:30:00,
2013-08-04 02:31:00,76.3,75.1,18.70,SE,135,0.0,2.7,96,0.00,,,0.00,VWS V14.00,2013-08-04 07:31:00,
2013-08-04 02:32:00,76.3,75.1,18.70,SSE,159,4.0,5.4,96,0.00,,,0.00,VWS V14.00,2013-08-04 07:32:00,
2013-08-04 02:33:00,76.3,75.1,18.70,SSE,159,4.0,5.4,96,0.00,,,0.00,VWS V14.00,2013-08-04 07:33:00,
2013-08-04 02:34:00,76.3,75.1,18.70,SSE,159,0.0,4.0,96,0.00,,,0.00,VWS V14.00,2013-08-04 07:34:00,
2013-08-04 02:35:00,76.3,75.1,18.70,SE,137,3.1,3.1,96,0.00,,,0.00,VWS V14.00,2013-08-04 07:35:00,
2013-08-04 02:36:00,76.3,75.1,18.70,SE,137,0.0,3.1,96,0.00,,,0.00,VWS V14.00,2013-08-04 07:36:00,
2013-08-04 02:37:00,76.3,75.4,18.70,SE,137,0.0,0.0,97,0.00,,,0.00,VWS V14.00,2013-08-04 07:37:00,
2013-08-04 02:38:00,76.5,75.6,18.70,SE,137,0.0,0.0,97,0.00,,,0.00,VWS V14.00,2013-08-04 07:38:00,
2013-08-04 02:39:00,76.5,75.6,18.70,SE,137,0.0,0.0,97,0.00,,,0.00,VWS V14.00,2013-08-04 07:39:00,
2013-08-04 02:40:00,76.5,75.6,18.70,SE,137,0.0,0.0,97,0.00,,,0.00,VWS V14.00,2013-08-04 07:40:00,
2013-08-04 02:41:00,76.3,75.4,18.70,SE,136,0.0,3.1,97,0.00,,,0.00,VWS V14.00,2013-08-04 07:41:00,
2013-08-04 02:42:00,76.3,75.4,18.70,SE,136,0.0,0.0,97,0.00,,,0.00,VWS V14.00,2013-08-04 07:42:00,
2013-08-04 02:43:00,76.3,75.4,18.70,SE,136,0.0,0.0,97,0.00,,,0.00,VWS V14.00,2013-08-04 07:43:00,
2013-08-04 02:44:00,76.3,75.4,18.70,SE,136,0.0,0.0,97,0.00,,,0.00,VWS V14.00,2013-08-04 07:44:00,
2013-08-04 02:45:00,76.3,75.4,18.70,SE,136,0.0,0.0,97,0.00,,,0.00,VWS V14.00,2013-08-04 07:45:00,
2013-08-04 02:46:00,76.3,75.4,18.70,SE,136,0.0,0.0,97,0.00,,,0.00,VWS V14.00,2013-08-04 07:46:00,
2013-08-04 02:47:00,76.3,75.4,18.70,SE,136,0.0,0.0,97,0.00,,,0.00,VWS V14.00,2013-08-04 07:47:00,
2013-08-04 02:48:00,76.1,75.2,18.70,SE,136,0.0,0.0,97,0.00,,,0.00,VWS V14.00,2013-08-04 07:48:00,
2013-08-04 02:49:00,76.1,75.2,18.70,SE,136,0.0,0.0,97,0.00,,,0.00,VWS V14.00,2013-08-04 07:49:00,
2013-08-04 02:50:00,76.1,75.2,18.70,SE,136,0.0,0.0,97,0.00,,,0.00,VWS V14.00,2013-08-04 07:50:00,
2013-08-04 02:51:00,76.1,75.2,18.70,SE,136,0.0,0.0,97,0.00,,,0.00,VWS V14.00,2013-08-04 07:51:00,
2013-08-04 02:52:00,76.1,75.2,18.70,SE,136,0.0,0.0,97,0.00,,,0.00,VWS V14.00,2013-08-04 07:52:00,
2013-08-04 02:53:00,76.1,75.2,18.70,SE,136,0.0,0.0,97,0.00,,,0.00,VWS V14.00,2013-08-04 07:53:00,
2013-08-04 02:54:00,76.1,75.2,18.70,SE,136,0.0,0.0,97,0.00,,,0.00,VWS V14.00,2013-08-04 07:54:00,
2013-08-04 02:55:00,76.1,75.2,18.70,SE,136,0.0,0.0,97,0.00,,,0.00,VWS V14.00,2013-08-04 07:55:00,
2013-08-04 02:56:00,76.1,75.2,18.70,SE,136,0.0,0.0,97,0.00,,,0.00,VWS V14.00,2013-08-04 07:56:00,
2013-08-04 02:57:00,76.1,75.2,18.70,SE,136,0.0,0.0,97,0.00,,,0.00,VWS V14.00,2013-08-04 07:57:00,
2013-08-04 02:58:00,76.1,75.2,18.70,SE,136,0.0,0.0,97,0.00,,,0.00,VWS V14.00,2013-08-04 07:58:00,
2013-08-04 02:59:00,76.1,75.2,18.70,SE,136,0.0,0.0,97,0.00,,,0.00,VWS V14.00,2013-08-04 07:59:00,
2013-08-04 03:00:00,76.1,75.2,18.70,SE,136,0.0,0.0,97,0.00,,,0.00,VWS V14.00,2013-08-04 08:00:00,
2013-08-04 08:56:00,79.2,76.6,18.70,North,357,3.1,3.1,92,0.00,,,0.00,VWS V14.00,2013-08-04 13:56:00,
2013-08-04 09:02:00,79.9,76.7,18.70,North,357,2.7,3.6,90,0.00,,,0.00,VWS V14.00,2013-08-04 14:02:00,
2013-08-04 09:06:00,80.4,76.9,18.70,North,357,4.0,5.4,89,0.00,,,0.00,VWS V14.00,2013-08-04 14:06:00,
2013-08-04 09:12:00,80.6,76.7,18.70,North,2,2.7,3.1,88,0.00,,,0.00,VWS V14.00,2013-08-04 14:12:00,
2013-08-04 09:16:00,80.6,76.4,18.70,NE,49,5.4,5.4,87,0.00,,,0.00,VWS V14.00,2013-08-04 14:16:00,
2013-08-04 09:23:00,81.1,76.6,18.70,NNE,23,5.4,6.3,86,0.00,,,0.00,VWS V14.00,2013-08-04 14:23:00,
2013-08-04 09:28:00,81.5,76.6,18.70,North,7,5.8,5.8,85,0.00,,,0.00,VWS V14.00,2013-08-04 14:28:00,
2013-08-04 09:34:00,81.1,75.5,18.70,ENE,63,2.2,5.4,83,0.00,,,0.00,VWS V14.00,2013-08-04 14:34:00,
2013-08-04 09:39:00,81.0,75.7,18.70,ENE,58,5.8,5.8,84,0.00,,,0.00,VWS V14.00,2013-08-04 14:39:00,
2013-08-04 09:45:00,80.8,75.5,18.70,NNE,26,5.4,6.3,84,0.00,,,0.00,VWS V14.00,2013-08-04 14:45:00,
2013-08-04 09:51:00,80.6,75.3,18.70,NNE,19,6.3,6.3,84,0.00,,,0.00,VWS V14.00,2013-08-04 14:51:00,
2013-08-04 09:56:00,80.6,75.3,18.70,NE,44,4.9,5.4,84,0.00,,,0.00,VWS V14.00,2013-08-04 14:56:00,
2013-08-04 10:01:00,80.8,75.5,18.70,ENE,76,2.7,5.4,84,0.00,,,0.00,VWS V14.00,2013-08-04 15:01:00,
2013-08-04 10:06:00,80.6,75.0,18.70,NE,45,5.8,5.8,83,0.00,,,0.00,VWS V14.00,2013-08-04 15:06:00,
2013-08-04 10:12:00,81.0,75.3,18.70,East,84,4.0,4.9,83,0.00,,,0.00,VWS V14.00,2013-08-04 15:12:00,
2013-08-04 10:17:00,81.1,74.8,18.70,East,88,5.8,6.3,81,0.00,,,0.00,VWS V14.00,2013-08-04 15:17:00,
2013-08-04 10:22:00,81.3,74.9,18.70,ENE,67,6.3,6.3,81,0.00,,,0.00,VWS V14.00,2013-08-04 15:22:00,
2013-08-04 10:28:00,81.7,75.3,18.70,NE,49,5.8,8.1,81,0.00,,,0.00,VWS V14.00,2013-08-04 15:28:00,
2013-08-04 10:34:00,81.7,74.9,18.70,East,81,5.8,10.1,80,0.00,,,0.00,VWS V14.00,2013-08-04 15:34:00,
2013-08-04 10:39:00,81.5,75.1,18.70,ENE,65,4.9,8.3,81,0.00,,,0.00,VWS V14.00,2013-08-04 15:39:00,
2013-08-04 10:44:00,81.1,74.8,18.70,ENE,63,5.4,5.8,81,0.00,,,0.00,VWS V14.00,2013-08-04 15:44:00,
2013-08-04 10:48:00,81.1,75.1,18.70,ESE,113,6.3,6.3,82,0.00,,,0.00,VWS V14.00,2013-08-04 15:48:00,
2013-08-04 10:55:00,81.1,75.1,18.70,NE,42,3.6,3.6,82,0.00,,,0.00,VWS V14.00,2013-08-04 15:55:00,
2013-08-04 11:00:00,81.1,75.5,18.70,East,84,4.0,6.3,83,0.00,,,0.00,VWS V14.00,2013-08-04 16:00:00,
2013-08-04 11:05:00,81.0,74.6,18.70,ENE,68,5.8,8.3,81,0.00,,,0.00,VWS V14.00,2013-08-04 16:05:00,
2013-08-04 11:11:00,81.1,74.8,18.70,ESE,105,4.9,6.3,81,0.00,,,0.00,VWS V14.00,2013-08-04 16:11:00,
2013-08-04 11:16:00,81.3,74.9,18.70,East,79,5.4,5.4,81,0.00,,,0.00,VWS V14.00,2013-08-04 16:16:00,
2013-08-04 11:21:00,81.7,74.9,18.70,East,87,4.5,7.6,80,0.00,,,0.00,VWS V14.00,2013-08-04 16:21:00,
2013-08-04 11:25:00,81.9,75.1,18.70,ESE,113,5.4,8.7,80,0.00,,,0.00,VWS V14.00,2013-08-04 16:25:00,
2013-08-04 11:31:00,82.2,75.4,18.70,ENE,75,7.6,8.1,80,0.00,,,0.00,VWS V14.00,2013-08-04 16:31:00,
2013-08-04 11:36:00,83.1,75.9,18.70,East,98,4.0,4.9,79,0.00,,,0.00,VWS V14.00,2013-08-04 16:36:00,
2013-08-04 11:42:00,84.0,76.4,18.70,SE,138,3.6,8.7,78,0.00,,,0.00,VWS V14.00,2013-08-04 16:42:00,
2013-08-04 11:47:00,84.9,76.5,18.70,ESE,104,5.4,8.3,76,0.00,,,0.00,VWS V14.00,2013-08-04 16:47:00,
2013-08-04 11:52:00,85.3,76.5,18.70,ESE,122,4.9,4.9,75,0.00,,,0.00,VWS V14.00,2013-08-04 16:52:00,
2013-08-04 11:58:00,86.4,76.7,18.70,East,96,8.7,8.7,73,0.00,,,0.00,VWS V14.00,2013-08-04 16:58:00,
2013-08-04 12:03:00,86.0,75.1,18.70,ENE,68,5.4,6.3,70,0.00,,,0.00,VWS V14.00,2013-08-04 17:03:00,
2013-08-04 12:08:00,86.2,76.1,18.70,South,170,5.4,6.3,72,0.00,,,0.00,VWS V14.00,2013-08-04 17:08:00,
2013-08-04 12:13:00,86.7,75.3,18.70,NE,50,8.3,9.2,69,0.00,,,0.00,VWS V14.00,2013-08-04 17:13:00,
2013-08-04 12:19:00,86.7,75.3,18.70,ESE,110,5.4,6.3,69,0.00,,,0.00,VWS V14.00,2013-08-04 17:19:00,
2013-08-04 12:25:00,86.9,75.9,18.70,ENE,78,6.3,8.1,70,0.00,,,0.00,VWS V14.00,2013-08-04 17:25:00,
2013-08-04 12:29:00,87.6,77.1,18.70,East,98,4.0,5.4,71,0.00,,,0.00,VWS V14.00,2013-08-04 17:29:00,
2013-08-04 12:35:00,88.0,76.1,18.70,East,83,4.0,8.7,68,0.00,,,0.00,VWS V14.00,2013-08-04 17:35:00,
2013-08-04 12:40:00,88.7,76.3,18.70,ENE,69,7.6,7.6,67,0.00,,,0.00,VWS V14.00,2013-08-04 17:40:00,
2013-08-04 12:46:00,88.9,77.0,18.70,SE,140,2.7,5.8,68,0.00,,,0.00,VWS V14.00,2013-08-04 17:46:00,
2013-08-04 12:51:00,89.4,77.0,18.70,East,94,5.8,5.8,67,0.00,,,0.00,VWS V14.00,2013-08-04 17:51:00,
2013-08-04 12:57:00,89.6,74.9,18.70,East,98,6.3,8.3,62,0.00,,,0.00,VWS V14.00,2013-08-04 17:57:00,
2013-08-04 13:02:00,89.4,74.2,18.70,ENE,74,7.6,8.1,61,0.00,,,0.00,VWS V14.00,2013-08-04 18:02:00,
2013-08-04 13:08:00,89.4,74.2,18.70,ENE,75,5.8,6.3,61,0.00,,,0.00,VWS V14.00,2013-08-04 18:08:00,
2013-08-04 13:13:00,89.6,74.9,18.70,ESE,116,6.3,8.3,62,0.00,,,0.00,VWS V14.00,2013-08-04 18:13:00,
2013-08-04 13:18:00,89.2,74.0,18.70,ESE,112,6.3,6.3,61,0.00,,,0.00,VWS V14.00,2013-08-04 18:18:00,
2013-08-04 13:24:00,89.8,75.0,18.70,ESE,111,4.0,6.3,62,0.00,,,0.00,VWS V14.00,2013-08-04 18:24:00,
2013-08-04 13:28:00,90.0,75.2,18.70,ESE,102,7.6,7.6,62,0.00,,,0.00,VWS V14.00,2013-08-04 18:28:00,
2013-08-04 13:34:00,90.1,75.4,18.70,SE,139,6.3,6.3,62,0.00,,,0.00,VWS V14.00,2013-08-04 18:34:00,
2013-08-04 13:39:00,90.5,75.7,18.70,ESE,110,4.9,7.6,62,0.00,,,0.00,VWS V14.00,2013-08-04 18:39:00,
2013-08-04 13:44:00,90.7,75.4,18.70,ENE,76,6.3,6.3,61,0.00,,,0.00,VWS V14.00,2013-08-04 18:44:00,
2013-08-04 13:50:00,91.0,75.7,18.70,SE,135,7.6,7.6,61,0.00,,,0.00,VWS V14.00,2013-08-04 18:50:00,
2013-08-04 13:56:00,91.6,75.2,18.70,ENE,70,8.3,8.7,59,0.00,,,0.00,VWS V14.00,2013-08-04 18:56:00,
2013-08-04 14:01:00,91.4,74.6,18.70,ESE,121,6.3,8.3,58,0.00,,,0.00,VWS V14.00,2013-08-04 19:01:00,
2013-08-04 14:07:00,91.4,74.0,18.70,SE,127,7.6,7.6,57,0.00,,,0.00,VWS V14.00,2013-08-04 19:07:00,
2013-08-04 14:13:00,91.9,75.1,18.70,East,83,5.4,8.7,58,0.00,,,0.00,VWS V14.00,2013-08-04 19:13:00,
2013-08-04 14:18:00,92.3,75.9,18.70,SE,126,4.9,6.3,59,0.00,,,0.00,VWS V14.00,2013-08-04 19:18:00,
2013-08-04 14:24:00,92.7,74.7,18.70,SE,143,5.4,8.1,56,0.00,,,0.00,VWS V14.00,2013-08-04 19:24:00,
2013-08-04 14:29:00,93.2,75.7,18.70,SE,133,5.4,11.0,57,0.00,,,0.00,VWS V14.00,2013-08-04 19:29:00,
2013-08-04 14:34:00,93.7,76.2,18.70,East,81,7.6,7.6,57,0.00,,,0.00,VWS V14.00,2013-08-04 19:34:00,
2013-08-04 14:39:00,94.3,76.2,18.70,ESE,110,8.1,8.7,56,0.00,,,0.00,VWS V14.00,2013-08-04 19:39:00,
2013-08-04 14:44:00,94.8,77.2,18.70,SSE,163,2.2,3.6,57,0.00,,,0.00,VWS V14.00,2013-08-04 19:44:00,
2013-08-04 14:50:00,95.2,76.5,18.70,ENE,73,6.3,8.3,55,0.00,,,0.00,VWS V14.00,2013-08-04 19:50:00,
2013-08-04 14:55:00,95.4,77.2,18.70,South,189,0.0,3.1,56,0.00,,,0.00,VWS V14.00,2013-08-04 19:55:00,
2013-08-04 15:01:00,95.0,76.3,18.70,SSW,201,3.1,3.6,55,0.00,,,0.00,VWS V14.00,2013-08-04 20:01:00,
2013-08-04 15:06:00,94.8,75.6,18.70,ESE,116,10.1,10.1,54,0.00,,,0.00,VWS V14.00,2013-08-04 20:06:00,
2013-08-04 15:11:00,93.9,74.8,18.70,SE,136,4.0,6.3,54,0.00,,,0.00,VWS V14.00,2013-08-04 20:11:00,
2013-08-04 15:18:00,93.9,76.4,18.70,SSE,167,2.7,5.4,57,0.00,,,0.00,VWS V14.00,2013-08-04 20:18:00,
2013-08-04 15:24:00,94.3,76.2,18.70,ESE,118,0.0,5.8,56,0.00,,,0.00,VWS V14.00,2013-08-04 20:24:00,
2013-08-04 15:29:00,94.3,77.2,18.70,South,173,0.0,2.7,58,0.00,,,0.00,VWS V14.00,2013-08-04 20:29:00,
2013-08-04 15:35:00,93.9,75.8,18.70,SE,140,4.9,5.8,56,0.00,,,0.00,VWS V14.00,2013-08-04 20:35:00,
2013-08-04 15:39:00,94.1,77.1,18.70,South,177,3.6,5.4,58,0.00,,,0.00,VWS V14.00,2013-08-04 20:39:00,
2013-08-04 15:45:00,93.7,76.7,18.70,SSW,204,2.2,5.4,58,0.00,,,0.00,VWS V14.00,2013-08-04 20:45:00,
2013-08-04 15:50:00,93.7,76.7,18.70,SE,140,4.0,6.3,58,0.00,,,0.00,VWS V14.00,2013-08-04 20:50:00,
2013-08-04 15:55:00,93.7,76.7,18.70,SE,142,3.1,5.8,58,0.00,,,0.00,VWS V14.00,2013-08-04 20:55:00,
2013-08-04 15:59:00,93.6,76.1,18.70,SE,138,5.8,8.3,57,0.00,,,0.00,VWS V14.00,2013-08-04 20:59:00,
2013-08-04 16:05:00,92.7,76.2,18.70,SE,130,4.5,4.5,59,0.00,,,0.00,VWS V14.00,2013-08-04 21:05:00,
2013-08-04 16:12:00,93.0,76.6,18.70,SE,146,0.0,0.0,59,0.00,,,0.00,VWS V14.00,2013-08-04 21:12:00,
2013-08-04 16:17:00,93.2,76.8,18.70,ESE,112,0.0,2.7,59,0.00,,,0.00,VWS V14.00,2013-08-04 21:17:00,
2013-08-04 16:22:00,93.6,77.1,18.70,SSE,164,5.4,6.3,59,0.00,,,0.00,VWS V14.00,2013-08-04 21:22:00,
2013-08-04 16:28:00,93.7,77.8,18.70,SSE,149,2.2,3.6,60,0.00,,,0.00,VWS V14.00,2013-08-04 21:28:00,
2013-08-04 16:33:00,93.6,77.1,18.70,ESE,111,3.6,4.9,59,0.00,,,0.00,VWS V14.00,2013-08-04 21:33:00,
2013-08-04 16:38:00,93.6,77.6,18.70,SE,131,3.1,4.0,60,0.00,,,0.00,VWS V14.00,2013-08-04 21:38:00,
2013-08-04 16:43:00,93.2,76.2,18.70,SSE,165,4.0,5.8,58,0.00,,,0.00,VWS V14.00,2013-08-04 21:43:00,
2013-08-04 16:48:00,92.7,76.2,18.70,SE,131,3.1,5.8,59,0.00,,,0.00,VWS V14.00,2013-08-04 21:48:00,
2013-08-04 16:53:00,92.7,76.8,18.70,SSE,149,0.0,3.6,60,0.00,,,0.00,VWS V14.00,2013-08-04 21:53:00,
2013-08-04 16:59:00,92.5,77.6,18.70,SE,133,4.9,5.8,62,0.00,,,0.00,VWS V14.00,2013-08-04 21:59:00,
2013-08-04 17:04:00,91.9,76.6,18.70,ESE,122,0.0,0.0,61,0.00,,,0.00,VWS V14.00,2013-08-04 22:04:00,
2013-08-04 17:08:00,91.9,76.6,18.70,South,175,0.0,4.0,61,0.00,,,0.00,VWS V14.00,2013-08-04 22:08:00,
2013-08-04 17:14:00,91.8,76.4,18.70,ESE,122,2.7,3.1,61,0.00,,,0.00,VWS V14.00,2013-08-04 22:14:00,
2013-08-04 17:20:00,91.9,77.6,18.70,SE,124,0.0,0.0,63,0.00,,,0.00,VWS V14.00,2013-08-04 22:20:00,
2013-08-04 17:24:00,92.5,77.1,18.70,East,80,3.6,3.6,61,0.00,,,0.00,VWS V14.00,2013-08-04 22:24:00,
2013-08-04 17:30:00,92.7,77.7,18.70,East,89,3.6,5.4,62,0.00,,,0.00,VWS V14.00,2013-08-04 22:30:00,
2013-08-04 17:34:00,92.3,76.4,18.70,East,97,3.1,4.5,60,0.00,,,0.00,VWS V14.00,2013-08-04 22:34:00,
2013-08-04 17:41:00,92.5,77.1,18.70,ENE,65,3.1,4.0,61,0.00,,,0.00,VWS V14.00,2013-08-04 22:41:00,
2013-08-04 17:47:00,92.5,76.6,18.70,SE,141,3.6,7.6,60,0.00,,,0.00,VWS V14.00,2013-08-04 22:47:00,
2013-08-04 17:53:00,92.3,76.4,18.70,East,83,3.1,3.6,60,0.00,,,0.00,VWS V14.00,2013-08-04 22:53:00,
2013-08-04 17:59:00,92.3,76.4,18.70,East,80,4.0,5.4,60,0.00,,,0.00,VWS V14.00,2013-08-04 22:59:00,
2013-08-04 18:05:00,91.9,76.1,18.70,East,85,4.9,4.9,60,0.00,,,0.00,VWS V14.00,2013-08-04 23:05:00,
2013-08-04 18:10:00,92.1,76.2,18.70,East,99,8.1,8.1,60,0.00,,,0.00,VWS V14.00,2013-08-04 23:10:00,
2013-08-04 18:15:00,92.8,77.4,18.70,ESE,110,4.0,4.9,61,0.00,,,0.00,VWS V14.00,2013-08-04 23:15:00,
2013-08-04 18:22:00,93.6,77.6,18.70,South,189,2.2,5.8,60,0.00,,,0.00,VWS V14.00,2013-08-04 23:22:00,
2013-08-04 18:27:00,93.9,77.9,18.70,South,170,0.0,3.6,60,0.00,,,0.00,VWS V14.00,2013-08-04 23:27:00,
2013-08-04 18:32:00,94.3,77.2,18.70,SE,129,8.7,9.6,58,0.00,,,0.00,VWS V14.00,2013-08-04 23:32:00,
2013-08-04 18:37:00,93.7,76.2,18.70,SE,135,3.6,4.9,57,0.00,,,0.00,VWS V14.00,2013-08-04 23:37:00,
2013-08-04 18:44:00,93.9,76.4,18.70,East,93,7.6,8.1,57,0.00,,,0.00,VWS V14.00,2013-08-04 23:44:00,
2013-08-04 18:48:00,93.9,76.4,18.70,SE,146,4.0,7.6,57,0.00,,,0.00,VWS V14.00,2013-08-04 23:48:00,
2013-08-04 18:53:00,93.9,76.4,18.70,SSE,158,5.4,6.3,57,0.00,,,0.00,VWS V14.00,2013-08-04 23:53:00,
2013-08-04 19:00:00,93.4,75.3,18.70,ESE,103,8.3,10.1,56,0.00,,,0.00,VWS V14.00,2013-08-05 00:00:00,
2013-08-04 19:05:00,92.8,76.4,18.70,SSE,166,5.4,5.4,59,0.00,,,0.00,VWS V14.00,2013-08-05 00:05:00,
2013-08-04 19:10:00,92.7,76.2,18.70,SSE,153,5.4,5.4,59,0.00,,,0.00,VWS V14.00,2013-08-05 00:10:00,
2013-08-04 19:15:00,92.3,75.9,18.70,SSE,166,3.6,5.4,59,0.00,,,0.00,VWS V14.00,2013-08-05 00:15:00,
2013-08-04 19:22:00,92.5,77.1,18.70,SSE,153,5.8,6.3,61,0.00,,,0.00,VWS V14.00,2013-08-05 00:22:00,
2013-08-04 19:27:00,92.7,76.8,18.70,SSE,168,2.7,8.3,60,0.00,,,0.00,VWS V14.00,2013-08-05 00:27:00,
2013-08-04 19:32:00,92.5,76.1,18.70,SSE,160,6.3,7.6,59,0.00,,,0.00,VWS V14.00,2013-08-05 00:32:00,
2013-08-04 19:39:00,92.1,76.2,18.70,South,173,7.6,8.1,60,0.00,,,0.00,VWS V14.00,2013-08-05 00:39:00,
2013-08-04 19:44:00,91.6,75.2,18.70,ESE,122,2.7,5.4,59,0.00,,,0.00,VWS V14.00,2013-08-05 00:44:00,
2013-08-04 19:50:00,91.0,75.2,18.70,East,98,3.1,4.5,60,0.00,,,0.00,VWS V14.00,2013-08-05 00:50:00,
2013-08-04 19:55:00,90.7,75.4,18.70,SE,138,0.0,0.0,61,0.00,,,0.00,VWS V14.00,2013-08-05 00:55:00,
2013-08-04 20:01:00,90.1,74.9,18.70,ESE,102,3.6,5.4,61,0.00,,,0.00,VWS V14.00,2013-08-05 01:01:00,
2013-08-04 20:07:00,89.1,74.8,18.70,SE,138,5.8,5.8,63,0.00,,,0.00,VWS V14.00,2013-08-05 01:07:00,
2013-08-04 20:12:00,88.5,74.3,18.70,SSE,163,3.1,5.4,63,0.00,,,0.00,VWS V14.00,2013-08-05 01:12:00,
2013-08-04 20:17:00,88.0,74.3,18.70,SE,133,5.4,5.4,64,0.00,,,0.00,VWS V14.00,2013-08-05 01:17:00,
2013-08-04 20:23:00,88.2,74.9,18.70,SSE,162,0.0,5.8,65,0.00,,,0.00,VWS V14.00,2013-08-05 01:23:00,
2013-08-04 20:28:00,88.0,74.8,18.70,SE,130,5.4,5.8,65,0.00,,,0.00,VWS V14.00,2013-08-05 01:28:00,
2013-08-04 20:34:00,87.6,74.9,18.70,South,179,2.2,3.6,66,0.00,,,0.00,VWS V14.00,2013-08-05 01:34:00,
2013-08-04 20:40:00,87.3,75.0,18.70,SSE,147,3.1,4.0,67,0.00,,,0.00,VWS V14.00,2013-08-05 01:40:00,
2013-08-04 20:45:00,87.1,74.8,18.70,SSE,163,3.1,4.0,67,0.00,,,0.00,VWS V14.00,2013-08-05 01:45:00,
2013-08-04 20:50:00,87.1,75.2,18.70,SE,144,5.4,5.4,68,0.00,,,0.00,VWS V14.00,2013-08-05 01:50:00,
2013-08-04 20:56:00,86.7,74.9,18.70,ESE,111,3.6,3.6,68,0.00,,,0.00,VWS V14.00,2013-08-05 01:56:00,
2013-08-04 21:01:00,86.2,74.4,18.70,SSE,147,2.2,5.4,68,0.00,,,0.00,VWS V14.00,2013-08-05 02:01:00,
2013-08-04 21:06:00,85.6,74.7,18.70,SE,145,0.0,2.2,70,0.00,,,0.00,VWS V14.00,2013-08-05 02:06:00,
2013-08-04 21:13:00,85.5,74.6,18.70,ESE,102,0.0,0.0,70,0.00,,,0.00,VWS V14.00,2013-08-05 02:13:00,
2013-08-04 21:18:00,85.3,74.4,18.70,SSE,151,2.2,3.6,70,0.00,,,0.00,VWS V14.00,2013-08-05 02:18:00,
2013-08-04 21:23:00,84.9,74.1,18.70,East,82,2.2,3.1,70,0.00,,,0.00,VWS V14.00,2013-08-05 02:23:00,
2013-08-04 21:29:00,84.7,73.9,18.70,East,81,3.6,3.6,70,0.00,,,0.00,VWS V14.00,2013-08-05 02:29:00,
2013-08-04 21:34:00,84.4,73.9,18.70,East,99,0.0,0.0,71,0.00,,,0.00,VWS V14.00,2013-08-05 02:34:00,
2013-08-04 21:39:00,84.2,74.2,18.70,East,83,2.2,2.7,72,0.00,,,0.00,VWS V14.00,2013-08-05 02:39:00,
2013-08-04 21:44:00,83.8,74.3,18.70,East,81,0.0,3.1,73,0.00,,,0.00,VWS V14.00,2013-08-05 02:44:00,
2013-08-04 21:48:00,83.8,74.3,18.70,East,95,0.0,0.0,73,0.00,,,0.00,VWS V14.00,2013-08-05 02:48:00,
2013-08-04 21:55:00,83.5,73.9,18.70,East,98,0.0,0.0,73,0.00,,,0.00,VWS V14.00,2013-08-05 02:55:00,
2013-08-04 21:59:00,83.1,74.0,18.70,East,98,0.0,0.0,74,0.00,,,0.00,VWS V14.00,2013-08-05 02:59:00,
2013-08-04 22:06:00,82.9,73.8,18.70,ENE,64,0.0,2.7,74,0.00,,,0.00,VWS V14.00,2013-08-05 03:06:00,
2013-08-04 22:11:00,82.6,73.9,18.70,ENE,64,2.7,2.7,75,0.00,,,0.00,VWS V14.00,2013-08-05 03:11:00,
2013-08-04 22:16:00,82.2,73.9,18.70,ENE,64,0.0,2.2,76,0.00,,,0.00,VWS V14.00,2013-08-05 03:16:00,
2013-08-04 22:22:00,82.0,74.1,18.70,ENE,64,0.0,0.0,77,0.00,,,0.00,VWS V14.00,2013-08-05 03:22:00,
2013-08-04 22:27:00,81.9,74.3,18.70,ENE,64,0.0,0.0,78,0.00,,,0.00,VWS V14.00,2013-08-05 03:27:00,
2013-08-04 22:32:00,81.9,74.7,18.70,ENE,64,0.0,0.0,79,0.00,,,0.00,VWS V14.00,2013-08-05 03:32:00,
2013-08-04 22:38:00,81.7,74.9,18.70,ENE,64,0.0,0.0,80,0.00,,,0.00,VWS V14.00,2013-08-05 03:38:00,
2013-08-04 22:43:00,81.7,75.3,18.70,ESE,115,0.0,0.0,81,0.00,,,0.00,VWS V14.00,2013-08-05 03:43:00,
2013-08-04 22:48:00,81.5,75.5,18.70,SE,125,0.0,3.1,82,0.00,,,0.00,VWS V14.00,2013-08-05 03:48:00,
2013-08-04 22:53:00,81.3,75.3,18.70,SE,125,0.0,0.0,82,0.00,,,0.00,VWS V14.00,2013-08-05 03:53:00,
2013-08-04 22:59:00,81.1,75.5,18.70,SE,125,2.7,2.7,83,0.00,,,0.00,VWS V14.00,2013-08-05 03:59:00,
2013-08-04 23:02:00,81.0,75.3,18.70,ENE,78,0.0,2.7,83,0.00,,,0.00,VWS V14.00,2013-08-05 04:02:00,
2013-08-04 23:03:00,80.8,74.8,18.70,ENE,78,0.0,2.2,82,0.00,,,0.00,VWS V14.00,2013-08-05 04:03:00,
2013-08-04 23:05:00,80.8,74.8,18.70,ENE,78,2.7,2.7,82,0.00,,,0.00,VWS V14.00,2013-08-05 04:05:00,
2013-08-04 23:09:00,80.6,74.6,18.70,ENE,69,3.1,4.0,82,0.00,,,0.00,VWS V14.00,2013-08-05 04:09:00,
2013-08-04 23:11:00,80.6,74.6,18.70,ENE,69,0.0,0.0,82,0.00,,,0.00,VWS V14.00,2013-08-05 04:11:00,
2013-08-04 23:16:00,80.4,74.4,18.70,ENE,69,0.0,0.0,82,0.00,,,0.00,VWS V14.00,2013-08-05 04:16:00,
2013-08-04 23:22:00,80.4,75.2,18.70,ENE,69,0.0,0.0,84,0.00,,,0.00,VWS V14.00,2013-08-05 04:22:00,
2013-08-04 23:28:00,80.2,75.3,18.70,ENE,69,0.0,0.0,85,0.00,,,0.00,VWS V14.00,2013-08-05 04:28:00,
2013-08-04 23:33:00,80.2,75.3,18.70,ENE,69,0.0,0.0,85,0.00,,,0.00,VWS V14.00,2013-08-05 04:33:00,
2013-08-04 23:37:00,80.1,75.2,18.70,ENE,69,0.0,0.0,85,0.00,,,0.00,VWS V14.00,2013-08-05 04:37:00,
2013-08-04 23:43:00,80.1,75.5,18.70,East,91,2.2,4.0,86,0.00,,,0.00,VWS V14.00,2013-08-05 04:43:00,
2013-08-04 23:48:00,79.9,75.0,18.70,ESE,110,2.7,2.7,85,0.00,,,0.00,VWS V14.00,2013-08-05 04:48:00,
2013-08-04 23:55:00,79.7,74.8,18.70,East,98,0.0,2.7,85,0.00,,,0.00,VWS V14.00,2013-08-05 04:55:00,